sat.trackr.live / text

‹ back to catalog

AAC-HSI-SAT1

NORAD 56225 · 2023-054AZ

PAYLOAD ACTIVE UNKNOWN

§ Identity

Operator
Country
UK
Launch date
2023-04-15
Launch site
AFWTR
Launch vehicle
Mass (kg)
RCS (m²)

External: N2YO · Heavens-Above · Gunter

§ Orbital elements

Epoch: 2026-09-21T22:34:23.064672Z

Period
95.19 min
Inclination
97.3520°
Eccentricity
0.0010681
Mean motion
15.12821371 rev/d
Perigee alt
520.2 km
Apogee alt
535.0 km
Semi-major
6,905.7 km
B*
6.6750e-5
RAAN
137.9160°
Arg perigee
142.0691°
Mean anomaly
218.1295°
Rev number
18,999

§ Raw data

AAC-HSI-SAT11 56225U 23054AZ  26264.94054473  .00001111  00000+0  66750-4 0  99912 56225  97.3520 137.9160 0010681 142.0691 218.1295 15.12821371189999

JSON: /api/v1/satellites/56225 · /tle

For live sub-satellite position, see the globe view (requires WebGL).

§ Visibility from observer

Set your observer location to see the next 7 days of passes ≥ 10°. The values pass through the URL so the page stays shareable.

No JS? Fill the form by hand. The geolocation button needs JavaScript.